2023/01/01 00:00:00,21.1, 1.6
2023/01/01 00:10:00,21.1, 1.4
2023/01/01 00:20:00,21.1, 1.5
2023/01/01 00:30:00,21.1, 1.9
2023/01/01 00:40:00,21.1, 1.9
2023/01/01 00:50:00,21.0, 1.5
2023/01/01 01:00:00,20.9, 1.5
2023/01/01 01:10:00,20.9, 1.4
2023/01/01 01:20:00,20.9, 1.2
2023/01/01 01:30:00,20.9, 1.2
2023/01/01 01:40:00,20.9, 1.4
2023/01/01 01:50:00,20.9, 1.4
2023/01/01 02:00:00,20.9, 1.3
2023/01/01 02:10:00,20.8, 1.2
2023/01/01 02:20:00,20.8, 0.9
2023/01/01 02:30:00,20.8, 0.9
2023/01/01 02:40:00,20.8, 0.8
2023/01/01 02:50:00,20.8, 0.9
2023/01/01 03:00:00,20.8, 0.9
2023/01/01 03:10:00,20.8, 0.9
2023/01/01 03:20:00,20.8, 0.9
2023/01/01 03:30:00,20.8, 0.9
2023/01/01 03:40:00,20.8, 0.8
2023/01/01 03:50:00,20.8, 0.8
2023/01/01 04:00:00,20.8, 0.8
2023/01/01 04:10:00,20.8, 0.9
2023/01/01 04:20:00,20.8, 0.8
2023/01/01 04:30:00,20.8, 0.9
2023/01/01 04:40:00,20.7, 0.9
2023/01/01 04:50:00,20.7, 1.1
2023/01/01 05:00:00,20.8, 0.9
2023/01/01 05:10:00,20.7, 1.0
2023/01/01 05:20:00,20.7, 1.0
2023/01/01 05:30:00,20.7, 1.1
2023/01/01 05:40:00,20.7, 1.0
2023/01/01 05:50:00,20.7, 1.0
2023/01/01 06:00:00,20.7, 1.2
2023/01/01 06:10:00,20.7, 1.0
2023/01/01 06:20:00,20.7, 1.0
2023/01/01 06:30:00,20.7, 1.0
2023/01/01 06:40:00,20.6, 0.8
2023/01/01 06:50:00,20.6, 1.1
2023/01/01 07:00:00,20.6, 1.2
2023/01/01 07:10:00,20.6, 1.3
2023/01/01 07:20:00,20.7, 1.0
2023/01/01 07:30:00,20.7, 1.0
2023/01/01 07:40:00,20.7, 1.3
2023/01/01 07:50:00,20.7, 1.2
2023/01/01 08:00:00,20.6, 1.6
2023/01/01 08:10:00,20.7, 1.7
2023/01/01 08:20:00,20.7, 1.8
2023/01/01 08:30:00,20.7, 2.0
2023/01/01 08:40:00,20.6, 2.4
2023/01/01 08:50:00,20.6, 2.8
2023/01/01 09:00:00,20.7, 2.8
2023/01/01 09:10:00,20.7, 3.3
2023/01/01 09:20:00,20.7, 3.8
2023/01/01 09:30:00,20.7, 3.9
2023/01/01 09:40:00,20.7, 4.5
2023/01/01 09:50:00,20.8, 4.9
2023/01/01 10:00:00,20.8, 5.6
2023/01/01 10:10:00,20.8, 6.2
2023/01/01 10:20:00,20.8, 6.0
2023/01/01 10:30:00,20.9, 6.1
2023/01/01 10:40:00,20.8, 6.5
2023/01/01 10:50:00,20.7, 5.9
2023/01/01 11:00:00,20.6, 5.4
2023/01/01 11:10:00,20.5, 6.3
2023/01/01 11:20:00,20.7, 7.1
2023/01/01 11:30:00,20.6, 7.3
2023/01/01 11:40:00,20.3, 7.4
2023/01/01 11:50:00,20.2, 7.0
2023/01/01 12:00:00,20.0, 6.3
2023/01/01 12:10:00,20.0, 6.0
2023/01/01 12:20:00,20.1, 6.3
2023/01/01 12:30:00,19.8, 5.7
2023/01/01 12:40:00,19.7, 5.2
2023/01/01 12:50:00,19.8, 5.5
2023/01/01 13:00:00,19.9, 6.5
2023/01/01 13:10:00,19.6, 5.7
2023/01/01 13:20:00,19.5, 5.5
2023/01/01 13:30:00,19.4, 5.5
2023/01/01 13:40:00,19.5, 5.7
2023/01/01 13:50:00,19.4, 5.2
2023/01/01 14:00:00,19.4, 5.8
2023/01/01 14:10:00,19.7, 8.8
2023/01/01 14:20:00,19.9,11.0
2023/01/01 14:30:00,19.7, 8.1
2023/01/01 14:40:00,19.4, 6.3
2023/01/01 14:50:00,19.3, 5.8
2023/01/01 15:00:00,19.1, 5.6
2023/01/01 15:10:00,19.2, 5.2
2023/01/01 15:20:00,19.2, 4.5
2023/01/01 15:30:00,19.3, 3.8
2023/01/01 15:40:00,19.3, 3.6
2023/01/01 15:50:00,19.2, 3.9
2023/01/01 16:00:00,19.1, 3.7
2023/01/01 16:10:00,19.1, 3.4
2023/01/01 16:20:00,19.1, 3.0
2023/01/01 16:30:00,19.1, 2.6
2023/01/01 16:40:00,19.2, 2.7
2023/01/01 16:50:00,19.3, 2.5
2023/01/01 17:00:00,19.4, 2.1
2023/01/01 17:10:00,19.4, 2.4
2023/01/01 17:20:00,19.4, 2.2
2023/01/01 17:30:00,19.4, 1.8
2023/01/01 17:40:00,19.3, 2.1
2023/01/01 17:50:00,19.5, 2.0
2023/01/01 18:00:00,19.5, 1.7
2023/01/01 18:10:00,19.5, 1.7
2023/01/01 18:20:00,19.4, 1.6
2023/01/01 18:30:00,19.4, 1.7
2023/01/01 18:40:00,19.4, 1.7
2023/01/01 18:50:00,19.5, 1.7
2023/01/01 19:00:00,19.5, 1.9
2023/01/01 19:10:00,19.4, 1.9
2023/01/01 19:20:00,19.3, 1.9
2023/01/01 19:30:00,19.4, 2.0
2023/01/01 19:40:00,19.4, 2.0
2023/01/01 19:50:00,19.4, 1.9
2023/01/01 20:00:00,19.3, 1.8
2023/01/01 20:10:00,19.3, 2.1
2023/01/01 20:20:00,19.3, 2.1
2023/01/01 20:30:00,19.4, 2.4
2023/01/01 20:40:00,19.4, 2.1
2023/01/01 20:50:00,19.4, 2.1
2023/01/01 21:00:00,19.4, 2.2
2023/01/01 21:10:00,19.3, 2.0
2023/01/01 21:20:00,19.3, 1.8
2023/01/01 21:30:00,19.2, 2.3
2023/01/01 21:40:00,19.2, 2.0
2023/01/01 21:50:00,19.2, 1.7
2023/01/01 22:00:00,19.3, 1.8
2023/01/01 22:10:00,19.2, 1.6
2023/01/01 22:20:00,19.2, 2.0
2023/01/01 22:30:00,19.2, 1.9
2023/01/01 22:40:00,19.2, 2.0
2023/01/01 22:50:00,19.4, 2.1
2023/01/01 23:00:00,19.4, 1.7
2023/01/01 23:10:00,19.3, 1.9
2023/01/01 23:20:00,19.4, 1.8
2023/01/01 23:30:00,19.3, 2.2
2023/01/01 23:40:00,19.3, 1.7
2023/01/01 23:50:00,19.2, 1.5
